Probability
13 6 10 19 19 13 6 6 3 0 6 6 3 3 6 10 13 19 19 68 100 100 97 94 90 94 97 94 94 97 90 87 94 94 94 90 81 65 55 55 48 52 45
10 6 6 6 3 6 0 0 0 0 0 0 3 3 3 3 6 10 19 39 77 94 97 97 94 90 90 90 90 97 94 90 94 94 94 94 90 90 84 61 58 61 52
13 10 10 6 3 0 0 0 0 0 0 0 0 6 3 3 3 3 6 23 35 65 81 87 90 97 90 81 90 90 94 97 97 94 94 94 90 90 94 90 81 65 65
13 3 6 3 0 0 0 0 3 3 0 0 0 3 6 6 3 3 6 6 16 19 52 71 81 84 90 71 71 81 90 94 90 90 87 87 94 90 87 84 90 81 58
10 0 6 6 0 0 0 0 0 0 0 0 0 0 0 3 0 0 6 10 6 13 23 29 55 71 81 65 71 68 84 81 81 74 71 77 84 81 81 77 81 71 68
10 6 3 0 0 0 0 0 0 0 0 0 0 0 0 0 0 0 0 3 6 6 13 23 32 42 61 71 71 68 58 55 65 71 68 61 74 68 58 61 61 65 61
10 10 10 0 0 3 3 0 0 0 0 0 0 0 0 0 0 0 0 0 0 6 6 16 19 19 19 23 23 52 52 45 45 52 58 61 58 58 55 48 58 45 48
10 10 6 3 0 3 0 0 0 0 0 0 0 0 0 0 0 0 0 0 0 0 6 3 6 13 16 16 13 16 42 39 39 42 42 39 39 42 39 45 32 23 19
13 6 3 3 0 0 0 0 0 0 0 0 0 0 0 0 0 0 0 0 0 0 0 3 3 3 3 10 10 3 19 23 29 29 29 26 32 19 16 23 32 23 16
13 6 6 6 6 0 0 0 0 0 0 0 0 0 0 0 0 0 0 0 0 0 0 0 3 3 0 0 0 0 3 6 13 19 26 29 19 13 13 16 29 23 23
10 6 6 6 3 3 0 0 0 0 0 0 0 0 0 0 0 0 0 0 0 0 0 0 0 0 0 0 0 0 0 0 0 10 13 16 13 16 16 16 19 19 23
10 6 6 6 3 3 3 0 0 0 0 0 0 0 0 0 0 0 0 0 0 0 0 0 0 0 0 0 0 0 0 0 0 0 6 10 10 10 13 16 13 13 10
3 6 6 6 6 0 0 0 0 0 0 0 0 0 0 0 0 0 0 0 0 0 0 0 0 0 0 0 0 0 0 0 0 0 0 0 0 3 3 3 6 10 13
6 3 3 6 3 3 3 0 0 0 0 0 0 0 0 0 0 0 0 0 0 0 0 0 0 0 0 0 0 0 0 0 0 0 0 0 0 0 0 0 0 0 0
0 0 3 3 0 0 3 0 0 0 0 0 0 0 0 0 0 0 0 0 0 0 0 0 0 0 0 0 0 0 0 0 0 0 0 0 0 0 0 0 0 0 0
0 0 3 3 0 0 0 0 0 0 0 0 0 0 0 0 0 0 0 0 0 0 0 0 0 0 0 0 0 0 0 0 0 0 0 0 0 0 0 0 0 0 0
0 0 3 3 3 0 0 0 0 0 0 0 0 0 0 0 0 0 0 0 0 0 0 0 0 0 0 0 0 0 0 0 0 0 0 0 0 0 0 0 0 0 0
0 0 3 3 3 3 0 0 0 0 0 0 0 0 0 0 0 0 0 0 0 0 0 0 0 0 0 0 0 0 0 0 0 0 0 0 0 0 0 0 0 0 0
0 0 3 0 3 3 0 0 0 0 0 0 0 0 0 0 0 0 0 0 0 0 0 0 0 0 0 0 0 0 0 0 0 0 0 0 0 0 0 0 0 0 0
6 0 0 0 0 3 3 0 0 0 0 0 0 0 0 0 0 0 0 0 0 0 0 0 0 0 0 0 0 0 0 0 0 0 0 0 0 0 0 0 0 0 0
6 0 0 0 0 0 0 0 0 0 0 0 0 0 0 0 0 0 0 0 0 0 0 0 0 0 0 0 0 0 0 0 0 0 0 0 0 0 0 0 0 0 0
6 3 0 0 0 0 0 0 0 0 0 0 0 0 0 0 0 0 0 0 0 0 0 0 0 0 0 0 0 0 0 0 0 0 0 0 0 0 0 0 0 0 0
6 0 0 0 0 0 0 0 0 0 0 0 0 0 0 0 0 0 0 0 0 0 0 0 0 0 0 0 0 0 0 0 0 0 0 0 0 0 0 0 0 0 0
3 0 0 0 0 0 0 0 0 0 0 0 0 0 0 0 0 0 0 0 0 0 0 0 0 0 0 0 0 0 0 0 0 0 0 0 0 0 0 0 0 0 0
3 0 0 0 0 0 0 0 0 0 0 0 0 0 0 0 0 0 0 0 0 0 0 0 0 0 0 0 0 0 0 0 0 0 0 0 0 0 0 0 0 0 0
6 0 0 0 0 0 0 0 0 0 0 0 0 0 0 0 0 0 0 0 0 0 0 0 0 0 0 0 0 0 0 0 0 0 0 0 0 0 0 0 0 0 0
Height
5882 5882 5883 5884 5884 5885 5885 5886 5886 5885 5885 5885 5885 5885 5885 5885 5885 5886 5886 5886 5887 5887 5888 5888 5889 5890 5890 5891 5892 5892 5893 5894 5895 5895 5896 5897 5898 5898 5899 5900 5900 5901 5902
5880 5881 5882 5883 5883 5884 5884 5885 5885 5885 5885 5885 5885 5885 5885 5885 5885 5885 5885 5885 5886 5886 5887 5887 5888 5888 5889 5889 5890 5891 5891 5892 5893 5893 5894 5895 5895 5896 5897 5898 5899 5900 5900
5879 5880 5881 5882 5883 5883 5884 5884 5885 5885 5885 5884 5884 5884 5884 5884 5884 5884 5884 5885 5885 5885 5886 5886 5887 5887 5888 5888 5888 5889 5889 5890 5890 5891 5891 5892 5893 5894 5895 5896 5897 5897 5898
5877 5879 5880 5881 5882 5882 5883 5884 5884 5884 5884 5884 5884 5884 5884 5884 5884 5884 5884 5884 5884 5884 5885 5885 5886 5886 5886 5886 5887 5887 5887 5888 5888 5888 5889 5889 5890 5891 5892 5893 5894 5895 5896
5876 5877 5879 5880 5880 5881 5882 5883 5883 5883 5884 5884 5884 5884 5884 5884 5883 5884 5884 5883 5883 5884 5884 5884 5884 5884 5885 5885 5885 5885 5885 5885 5886 5886 5886 5887 5887 5888 5889 5889 5891 5892 5893
5874 5875 5877 5878 5879 5881 5881 5882 5883 5883 5883 5884 5884 5883 5883 5883 5883 5883 5883 5883 5883 5883 5883 5883 5883 5883 5883 5883 5883 5883 5883 5883 5883 5884 5884 5884 5884 5885 5885 5886 5887 5888 5889
5872 5874 5876 5877 5878 5880 5880 5881 5882 5883 5883 5883 5884 5884 5883 5883 5883 5883 5883 5883 5883 5883 5883 5882 5883 5882 5882 5882 5882 5881 5881 5881 5881 5881 5881 5881 5881 5882 5882 5882 5883 5884 5885
5870 5872 5874 5876 5877 5878 5879 5881 5881 5882 5882 5883 5883 5883 5883 5884 5883 5883 5882 5882 5882 5882 5882 5882 5881 5881 5881 5880 5880 5880 5880 5879 5879 5879 5878 5878 5878 5878 5879 5879 5879 5880 5881
5868 5870 5872 5874 5876 5877 5878 5880 5881 5881 5882 5882 5883 5883 5883 5883 5882 5882 5882 5881 5881 5881 5881 5881 5880 5880 5880 5879 5879 5878 5878 5877 5877 5876 5876 5875 5875 5875 5875 5875 5875 5876 5876
5866 5868 5870 5873 5874 5876 5877 5878 5879 5880 5881 5881 5882 5882 5882 5882 5882 5882 5881 5881 5880 5880 5880 5879 5879 5879 5878 5877 5877 5876 5876 5875 5874 5874 5873 5872 5872 5872 5872 5872 5872 5872 5872
5863 5866 5868 5871 5873 5874 5876 5877 5878 5879 5879 5880 5880 5881 5881 5881 5881 5881 5881 5880 5880 5879 5879 5878 5877 5877 5876 5876 5875 5874 5873 5872 5872 5871 5870 5870 5869 5868 5868 5868 5867 5867 5867
5861 5864 5866 5868 5870 5872 5874 5875 5876 5877 5878 5878 5879 5879 5879 5880 5880 5880 5879 5879 5879 5878 5877 5877 5876 5875 5874 5873 5872 5871 5871 5870 5869 5868 5867 5866 5866 5865 5864 5864 5863 5863 5863
5859 5861 5864 5866 5868 5870 5872 5873 5874 5875 5876 5877 5877 5877 5878 5878 5878 5878 5877 5877 5876 5876 5875 5874 5874 5873 5872 5871 5870 5869 5868 5867 5866 5865 5864 5863 5862 5861 5860 5859 5859 5858 5858
5856 5859 5861 5864 5865 5867 5869 5870 5872 5873 5874 5874 5875 5875 5875 5875 5875 5875 5875 5874 5874 5873 5872 5872 5871 5870 5869 5868 5867 5865 5864 5863 5862 5861 5859 5858 5857 5856 5855 5854 5853 5853 5852
5854 5856 5859 5861 5862 5864 5866 5867 5869 5870 5871 5871 5872 5872 5872 5872 5872 5872 5871 5871 5871 5870 5869 5868 5867 5866 5864 5863 5862 5861 5860 5859 5857 5856 5855 5854 5852 5851 5850 5849 5848 5847 5846
5851 5853 5856 5858 5859 5861 5862 5864 5865 5866 5867 5868 5868 5868 5869 5868 5868 5868 5867 5867 5866 5866 5865 5863 5862 5861 5860 5858 5857 5856 5855 5853 5852 5851 5849 5848 5847 5845 5844 5843 5842 5841 5840
5848 5850 5852 5854 5856 5857 5858 5859 5861 5862 5863 5863 5863 5864 5864 5864 5863 5863 5862 5862 5861 5860 5859 5858 5857 5856 5854 5853 5852 5850 5849 5847 5846 5845 5843 5842 5840 5839 5838 5836 5835 5834 5833
5845 5847 5848 5850 5851 5853 5854 5855 5856 5857 5857 5858 5858 5858 5858 5858 5858 5857 5856 5856 5855 5854 5853 5852 5850 5849 5848 5846 5845 5844 5842 5841 5839 5838 5836 5835 5833 5832 5830 5829 5828 5827 5825
5841 5843 5844 5845 5847 5848 5849 5849 5850 5851 5851 5852 5852 5852 5851 5851 5851 5850 5849 5848 5847 5847 5846 5845 5843 5842 5840 5839 5837 5836 5835 5833 5832 5830 5829 5827 5825 5824 5822 5821 5819 5818 5817
5836 5838 5839 5840 5841 5842 5843 5844 5844 5844 5844 5845 5845 5845 5844 5843 5843 5842 5841 5840 5839 5838 5837 5836 5835 5833 5832 5830 5828 5827 5826 5824 5823 5821 5819 5818 5816 5815 5813 5812 5810 5809 5808
5831 5832 5834 5834 5835 5836 5837 5837 5837 5837 5837 5837 5837 5836 5836 5835 5834 5833 5832 5831 5830 5829 5828 5827 5826 5824 5823 5820 5819 5817 5816 5814 5813 5811 5809 5807 5806 5805 5803 5801 5799 5798 5797
5826 5827 5828 5828 5829 5829 5829 5829 5829 5829 5829 5829 5828 5828 5827 5826 5825 5824 5823 5822 5820 5819 5818 5816 5815 5814 5812 5810 5808 5806 5805 5804 5803 5801 5798 5797 5794 5793 5791 5790 5788 5787 5785
5820 5821 5821 5822 5822 5822 5821 5821 5820 5820 5820 5820 5819 5818 5817 5816 5815 5813 5812 5811 5810 5808 5807 5805 5804 5802 5800 5798 5796 5795 5793 5792 5790 5788 5786 5785 5783 5780 5778 5776 5775 5774 5773
5814 5814 5814 5814 5814 5814 5813 5813 5812 5811 5811 5810 5809 5808 5807 5805 5804 5802 5801 5800 5798 5797 5795 5793 5791 5790 5788 5785 5783 5782 5780 5778 5777 5775 5772 5771 5770 5767 5765 5763 5762 5760 5759
5807 5806 5806 5806 5806 5805 5804 5804 5802 5801 5800 5799 5798 5797 5795 5794 5792 5790 5789 5788 5786 5784 5782 5780 5778 5776 5774 5772 5769 5767 5766 5764 5763 5762 5758 5756 5755 5753 5751 5750 5747 5745 5743
5798 5797 5797 5797 5796 5795 5794 5793 5793 5791 5790 5789 5787 5785 5784 5782 5780 5778 5776 5775 5773 5772 5769 5767 5765 5763 5760 5757 5754 5752 5750 5748 5747 5746 5744 5740 5738 5736 5736 5735 5732 5728 5726
Wind_Speed
6 6 5 5 4 4 4 4 3 3 2 2 2 2 2 2 2 2 3 4 3 4 4 5 6 7 7 7 7 8 8 8 8 9 9 9 9 9 9 8 8 7 6
8 7 6 5 5 4 4 3 3 2 2 2 1 2 2 2 1 2 2 3 4 4 4 5 6 7 7 7 7 8 8 9 9 9 10 11 11 11 11 10 10 10 9
9 8 7 6 5 4 4 3 2 2 2 2 2 2 2 1 0 1 1 2 3 4 4 5 5 6 7 7 8 8 9 9 10 10 10 11 12 13 13 13 12 12 12
10 9 8 7 5 4 4 3 2 2 1 1 1 1 2 1 0 1 1 1 2 3 4 4 5 5 6 7 8 8 9 9 10 10 11 11 13 14 15 15 15 14 14
11 9 8 7 6 5 4 4 3 1 0 1 1 1 1 1 0 1 1 1 1 2 3 4 4 5 6 6 7 8 8 9 10 10 11 11 12 13 15 16 17 17 16
13 11 10 8 6 6 5 4 3 2 1 0 1 1 1 1 1 1 1 1 1 1 2 3 4 4 5 6 7 8 8 9 10 10 11 12 12 13 14 16 18 18 18
14 12 11 9 8 7 5 4 3 2 2 1 1 1 1 1 1 1 1 1 1 1 1 2 3 4 5 5 6 7 8 9 9 10 11 12 12 13 15 15 17 19 19
15 14 12 11 9 7 6 5 4 3 2 1 1 1 1 0 1 1 1 1 1 2 2 3 3 4 5 5 6 7 7 8 9 10 11 12 13 14 15 15 17 19 21
16 15 14 12 11 9 8 6 5 4 3 3 2 2 1 1 0 1 1 1 2 2 3 3 4 4 5 5 6 7 8 8 9 10 11 12 13 14 15 16 16 17 19
17 16 15 14 12 10 9 7 6 5 5 4 4 3 2 2 1 1 2 2 2 3 4 4 5 6 6 7 7 8 8 9 9 10 11 12 13 14 15 16 17 18 18
18 17 16 15 13 12 11 9 8 7 6 6 5 5 4 3 3 3 4 4 4 4 5 6 6 7 8 8 9 9 9 10 11 11 12 13 13 14 15 16 17 18 19
18 17 16 15 14 13 12 11 10 9 8 8 7 6 6 6 6 6 6 6 6 7 7 8 9 9 9 10 10 10 11 11 12 13 13 14 14 15 16 16 17 19 20
19 18 18 16 15 15 14 13 12 11 10 10 10 9 9 9 9 9 9 9 9 9 9 10 10 11 12 12 12 12 13 13 13 14 15 15 15 16 17 17 18 20 21
20 19 18 17 17 16 15 15 14 13 13 12 12 12 12 11 12 12 12 12 12 13 13 13 13 14 14 15 15 15 15 16 16 16 16 17 17 17 18 19 19 20 21
20 20 19 18 18 18 17 17 16 16 15 15 15 15 15 15 15 15 15 15 16 16 16 17 17 17 17 18 18 18 18 18 19 19 19 19 20 20 20 20 21 22 22
21 21 20 19 19 19 19 19 18 18 18 18 18 17 17 17 18 18 18 19 19 19 20 20 20 21 21 21 22 22 22 22 22 22 22 22 22 23 23 23 23 24 24
21 21 20 20 20 20 20 21 20 21 21 21 20 20 20 20 20 20 21 22 22 23 23 23 24 24 24 25 25 25 25 25 25 25 25 25 25 25 26 26 26 26 26
20 21 21 21 22 22 22 22 23 23 23 23 23 23 24 24 23 24 24 25 26 26 26 27 27 27 28 28 28 28 28 29 29 29 29 29 29 29 29 29 29 29 29
22 22 23 23 23 23 23 24 25 26 26 26 26 26 27 27 27 27 28 29 29 30 30 30 30 31 31 31 31 31 32 32 32 32 33 33 33 33 33 33 32 32 32
22 22 23 24 24 25 26 27 27 27 28 28 29 29 30 30 31 31 31 32 32 32 33 33 33 33 34 35 35 35 35 35 35 36 36 36 36 36 36 36 36 36 35
24 25 25 26 26 27 28 29 30 30 31 31 32 32 33 34 34 34 34 34 35 35 36 36 36 36 37 38 38 38 38 38 38 39 39 39 39 39 39 39 39 39 39
25 26 27 28 28 29 30 31 32 33 33 34 34 35 35 36 36 37 37 37 38 38 39 39 39 39 39 41 41 41 41 41 40 41 42 42 42 42 42 43 43 43 42
26 27 28 29 30 31 31 32 33 34 36 37 37 37 37 38 38 39 40 41 41 41 42 42 42 42 42 43 44 44 45 45 44 44 45 44 45 46 46 46 46 46 46
27 29 30 31 32 33 34 34 35 35 36 37 39 39 40 41 42 42 43 43 44 44 44 44 45 45 46 47 47 48 48 48 47 47 48 47 47 48 49 49 49 49 49
29 30 32 32 33 34 35 36 36 36 37 38 40 42 43 44 45 45 45 45 45 46 47 47 47 47 48 49 50 50 50 50 49 49 50 51 50 51 51 51 51 52 52
32 32 33 34 34 35 36 37 37 37 38 40 42 43 44 46 47 47 47 47 47 47 48 49 50 50 51 52 52 53 53 53 52 51 52 54 54 54 53 52 53 54 54
Wind_Direction
254 266 267 278 292 310 320 329 336 339 343 338 322 314 312 305 253 247 246 238 236 225 224 228 227 230 234 238 238 235 233 233 234 235 236 237 235 234 234 236 236 237 240
249 256 257 264 273 293 307 317 322 326 335 344 338 326 318 298 254 263 265 247 237 231 234 239 238 236 236 237 239 240 240 241 244 244 241 240 238 236 237 240 241 242 244
243 248 250 246 255 272 294 305 314 332 354 9 13 2 344 337 328 297 273 250 240 240 240 245 246 244 246 245 246 247 247 248 250 251 251 247 242 240 240 242 244 245 246
235 235 241 242 246 260 273 287 303 337 12 36 26 358 350 5 355 331 316 292 259 252 247 249 250 255 257 256 256 255 255 255 257 257 254 254 252 247 244 246 247 247 247
227 227 233 237 242 246 253 267 278 268 80 66 51 15 3 24 81 348 348 350 311 260 255 256 261 268 268 268 267 266 263 262 262 264 261 259 257 255 250 248 248 248 248
223 222 223 227 229 233 243 248 252 238 215 91 88 77 80 58 85 33 11 12 2 299 275 268 270 275 279 279 274 272 271 270 268 270 268 265 263 261 258 254 251 249 249
221 218 217 219 222 228 235 231 231 229 217 186 151 128 100 77 67 31 13 3 357 336 306 299 297 290 288 289 286 282 278 277 275 274 272 269 267 266 262 260 257 252 250
220 216 214 215 218 223 223 224 222 214 211 202 186 171 163 129 46 21 5 349 329 323 319 314 311 307 299 293 290 288 286 284 282 280 277 273 272 271 270 267 264 258 253
217 215 213 215 217 218 219 224 224 223 223 220 217 216 198 183 280 329 330 330 322 309 306 307 311 312 309 306 303 298 294 292 289 286 284 280 277 274 272 271 270 266 261
214 213 215 217 218 219 222 225 226 226 227 229 232 232 226 226 257 288 303 306 307 310 312 310 306 304 305 304 303 301 299 297 295 293 290 287 283 279 275 272 270 268 266
214 214 216 217 218 222 224 225 228 230 233 239 242 242 245 250 264 281 292 296 297 302 306 307 306 303 302 300 299 298 298 298 297 295 293 290 288 285 280 277 273 271 269
213 213 214 217 221 226 228 228 230 233 236 242 246 249 255 262 270 279 285 290 291 293 295 297 299 300 300 299 298 298 297 297 296 295 295 293 290 287 284 280 277 273 271
214 214 216 220 224 229 230 230 234 235 238 244 250 255 260 264 270 275 279 282 285 287 288 290 293 295 296 297 297 297 297 297 296 295 294 294 292 289 286 283 281 278 275
215 216 219 222 226 230 231 234 238 239 242 247 254 259 263 267 271 274 276 279 282 284 286 287 290 292 294 294 295 295 295 295 294 294 293 292 292 291 289 287 284 281 279
215 218 223 227 230 233 237 240 243 245 248 251 256 261 265 268 271 273 276 279 281 283 284 285 286 289 290 291 291 291 292 292 292 292 291 291 290 289 288 287 285 283 280
219 224 229 232 234 238 242 243 246 249 252 255 258 262 265 268 271 273 275 277 279 280 281 282 284 285 286 287 288 288 288 287 288 288 289 289 288 288 287 286 285 283 281
225 229 233 236 240 243 246 247 250 253 255 258 261 263 266 268 271 274 276 277 277 278 278 279 281 282 283 284 285 285 285 285 285 285 286 286 286 285 286 285 284 282 281
231 235 238 241 245 247 249 251 254 256 258 260 262 265 267 269 271 274 275 276 277 277 278 279 280 280 281 281 282 283 284 284 284 284 285 285 285 284 284 284 284 283 281
238 242 243 246 249 251 253 255 258 259 261 262 264 266 268 270 271 274 275 275 276 277 277 278 279 280 281 281 280 281 282 283 283 283 283 284 284 283 283 282 283 282 281
244 244 246 249 252 253 256 258 259 261 262 264 266 268 270 271 273 274 275 277 277 277 277 277 277 278 279 280 280 280 280 281 281 281 282 282 282 282 282 281 281 281 280
246 247 249 250 252 255 257 258 260 261 263 265 267 269 271 272 273 274 276 277 278 278 278 278 278 279 279 279 279 280 280 280 280 281 281 281 281 281 280 279 279 279 279
250 252 253 253 254 257 259 261 262 263 265 267 269 271 272 273 274 275 276 277 278 279 279 279 278 279 279 279 280 280 281 281 280 280 280 281 281 281 280 279 279 278 279
257 257 258 259 260 261 263 265 266 266 267 268 270 272 273 274 273 273 275 275 276 277 278 279 278 278 279 280 280 280 280 281 280 279 279 279 279 280 280 280 279 279 279
261 260 261 263 264 265 265 266 268 267 269 271 271 272 274 275 274 274 275 276 276 278 279 280 279 279 280 280 281 281 280 280 280 280 279 279 279 279 279 280 280 280 279
265 267 267 268 268 267 268 268 269 269 270 272 274 274 275 276 276 276 276 277 277 278 278 280 280 280 281 281 281 281 282 281 281 280 280 280 280 279 279 280 280 279 278
266 269 271 272 272 269 270 270 270 271 273 274 275 276 275 276 276 277 277 278 278 278 279 280 281 281 282 282 282 282 282 282 282 280 280 280 280 280 279 279 280 280 279